When you browse on this site, cookies collect data to enhance your experience and personalize the content and advertising you see.
Visit our Privacy Policy to learn more. By continuing to use the site, you agree to this use of cookies and data.
  • în România
  • Lista ţărilor
  • Pe 7 zile
  • Temperatura apei
  • Hartă satelitară
  • Meteo pe hartă
  • Widget-uri
  • user-avatar
    Intrare

    Meteo pe oră la Novyy Bor

    Astăzi, 21 Martie, Joi

    Timp Temperatura Precipitaţii Vânt Presiune Umiditate
    00:00 -1°C° 0.4 mm 3 m/s 748 mmHg 84%
    01:00 -2°C° 0.4 mm 4 m/s 747 mmHg 86%
    02:00 -1°C° 0 mm 3 m/s 747 mmHg 91%
    03:00 -1°C° 0.5 mm 3 m/s 747 mmHg 92%
    04:00 0°C° 0.5 mm 3 m/s 746 mmHg 92%
    05:00 0°C° 0.5 mm 3 m/s 746 mmHg 92%
    06:00 0°C° 0 mm 3 m/s 747 mmHg 91%
    07:00 0°C° 0 mm 3 m/s 747 mmHg 90%
    08:00 0°C° 0 mm 4 m/s 747 mmHg 88%
    09:00 0°C° 0 mm 4 m/s 747 mmHg 86%
    10:00 +1°C° 0 mm 4 m/s 748 mmHg 85%
    11:00 +1°C° 0 mm 4 m/s 748 mmHg 84%
    12:00 +3°C° 0 mm 4 m/s 748 mmHg 79%
    13:00 +4°C° 0 mm 4 m/s 748 mmHg 73%
    14:00 +6°C° 0 mm 4 m/s 748 mmHg 68%
    15:00 +5°C° 0 mm 3 m/s 748 mmHg 71%
    16:00 +5°C° 0 mm 3 m/s 748 mmHg 74%
    17:00 +5°C° 0 mm 2 m/s 748 mmHg 77%
    18:00 +4°C° 0 mm 2 m/s 747 mmHg 81%
    19:00 +3°C° 0 mm 2 m/s 747 mmHg 85%
    20:00 +2°C° 0 mm 2 m/s 747 mmHg 89%
    21:00 +2°C° 0 mm 2 m/s 746 mmHg 89%
    22:00 +3°C° 0 mm 2 m/s 746 mmHg 89%
    23:00 +2°C° 0 mm 3 m/s 745 mmHg 90%

    Mâine, 22 Martie, Vineri

    Timp Temperatura Precipitaţii Vânt Presiune Umiditate
    00:00 +2°C° 0.3 mm 3 m/s 745 mmHg 91%
    01:00 +2°C° 0.3 mm 3 m/s 744 mmHg 91%
    02:00 +1°C° 0.3 mm 4 m/s 743 mmHg 92%
    03:00 +3°C° 0.7 mm 4 m/s 742 mmHg 93%
    04:00 +3°C° 0.7 mm 4 m/s 742 mmHg 93%
    05:00 +3°C° 0.7 mm 5 m/s 741 mmHg 94%
    06:00 +2°C° 0.6 mm 6 m/s 741 mmHg 89%
    07:00 +1°C° 0.6 mm 6 m/s 742 mmHg 83%
    08:00 0°C° 0.6 mm 7 m/s 742 mmHg 78%
    09:00 -1°C° 0.1 mm 7 m/s 743 mmHg 73%
    10:00 -1°C° 0.1 mm 7 m/s 744 mmHg 68%
    11:00 -1°C° 0.1 mm 7 m/s 745 mmHg 63%
    12:00 -1°C° 0.1 mm 7 m/s 745 mmHg 65%
    13:00 -1°C° 0.1 mm 7 m/s 745 mmHg 68%
    14:00 -2°C° 0.1 mm 7 m/s 746 mmHg 71%
    15:00 -2°C° 0.2 mm 7 m/s 746 mmHg 73%
    16:00 -2°C° 0.2 mm 7 m/s 746 mmHg 75%
    17:00 -2°C° 0.2 mm 7 m/s 747 mmHg 77%
    18:00 -2°C° 0.1 mm 7 m/s 747 mmHg 77%
    19:00 -2°C° 0.1 mm 7 m/s 748 mmHg 77%
    20:00 -2°C° 0.1 mm 7 m/s 748 mmHg 77%
    21:00 -2°C° 0.1 mm 6 m/s 749 mmHg 79%
    22:00 -2°C° 0.1 mm 6 m/s 749 mmHg 80%
    23:00 -2°C° 0.1 mm 6 m/s 750 mmHg 81%

    Poimâine, 23 Martie, Sâmbătă

    Timp Temperatura Precipitaţii Vânt Presiune Umiditate
    00:00 -1°C° 0 mm 5 m/s 750 mmHg 82%
    01:00 -2°C° 0 mm 5 m/s 750 mmHg 84%
    02:00 -2°C° 0 mm 4 m/s 751 mmHg 85%
    03:00 -2°C° 0 mm 4 m/s 751 mmHg 87%
    04:00 -3°C° 0 mm 4 m/s 751 mmHg 89%
    05:00 -2°C° 0 mm 3 m/s 752 mmHg 91%
    06:00 -2°C° 0 mm 3 m/s 752 mmHg 89%
    07:00 -2°C° 0 mm 3 m/s 752 mmHg 87%
    08:00 -1°C° 0 mm 2 m/s 752 mmHg 86%
    09:00 -1°C° 0 mm 2 m/s 752 mmHg 82%
    10:00 +2°C° 0 mm 1 m/s 752 mmHg 79%
    11:00 +3°C° 0 mm 1 m/s 752 mmHg 75%
    12:00 +4°C° 0 mm 1 m/s 752 mmHg 72%
    13:00 +5°C° 0 mm 1 m/s 751 mmHg 70%
    14:00 +5°C° 0 mm 1 m/s 751 mmHg 67%
    15:00 +4°C° 0 mm 2 m/s 750 mmHg 69%
    16:00 +4°C° 0 mm 2 m/s 750 mmHg 71%
    17:00 +4°C° 0 mm 2 m/s 749 mmHg 74%
    18:00 +3°C° 0 mm 2 m/s 749 mmHg 76%
    19:00 +1°C° 0 mm 3 m/s 748 mmHg 79%
    20:00 +1°C° 0 mm 3 m/s 748 mmHg 81%
    21:00 +1°C° 0.3 mm 3 m/s 747 mmHg 78%
    22:00 +1°C° 0.3 mm 3 m/s 746 mmHg 76%
    23:00 0°C° 0.3 mm 4 m/s 745 mmHg 73%

    24 Martie, Duminică

    Timp Temperatura Precipitaţii Vânt Presiune Umiditate
    00:00 +1°C° 1.1 mm 3 m/s 745 mmHg 77%
    01:00 +1°C° 1.1 mm 3 m/s 744 mmHg 80%
    02:00 +1°C° 1.1 mm 3 m/s 744 mmHg 84%
    03:00 +1°C° 0.1 mm 3 m/s 744 mmHg 88%
    04:00 +1°C° 0.1 mm 3 m/s 744 mmHg 91%
    05:00 +3°C° 0.1 mm 2 m/s 744 mmHg 95%
    06:00 +1°C° 0 mm 3 m/s 744 mmHg 93%
    07:00 +1°C° 0 mm 3 m/s 744 mmHg 92%
    08:00 0°C° 0 mm 4 m/s 744 mmHg 90%
    09:00 +1°C° 0 mm 4 m/s 744 mmHg 82%
    10:00 +2°C° 0 mm 5 m/s 744 mmHg 74%
    11:00 +2°C° 0 mm 5 m/s 744 mmHg 66%
    12:00 +3°C° 0 mm 5 m/s 744 mmHg 62%
    13:00 +3°C° 0 mm 6 m/s 744 mmHg 58%
    14:00 +3°C° 0 mm 6 m/s 744 mmHg 54%
    15:00 +2°C° 0.1 mm 5 m/s 744 mmHg 57%
    16:00 +1°C° 0.1 mm 4 m/s 744 mmHg 59%
    17:00 +2°C° 0.1 mm 3 m/s 744 mmHg 62%
    18:00 +1°C° 0 mm 3 m/s 744 mmHg 66%
    19:00 -1°C° 0 mm 3 m/s 744 mmHg 71%
    20:00 -2°C° 0 mm 2 m/s 744 mmHg 75%
    21:00 -2°C° 0 mm 2 m/s 744 mmHg 76%
    22:00 -3°C° 0 mm 2 m/s 744 mmHg 77%
    23:00 -3°C° 0 mm 2 m/s 744 mmHg 78%

    25 Martie, Luni

    Timp Temperatura Precipitaţii Vânt Presiune Umiditate
    00:00 -3°C° 0 mm 2 m/s 744 mmHg 79%
    01:00 -3°C° 0 mm 2 m/s 744 mmHg 80%
    02:00 -4°C° 0 mm 2 m/s 744 mmHg 81%
    03:00 -4°C° 0 mm 2 m/s 744 mmHg 82%
    04:00 -4°C° 0 mm 2 m/s 744 mmHg 84%
    05:00 -4°C° 0 mm 2 m/s 743 mmHg 86%
    06:00 -3°C° 0 mm 2 m/s 743 mmHg 82%
    07:00 -2°C° 0 mm 2 m/s 743 mmHg 78%
    08:00 -1°C° 0 mm 2 m/s 743 mmHg 73%
    09:00 +1°C° 0 mm 2 m/s 743 mmHg 69%
    10:00 +1°C° 0 mm 3 m/s 742 mmHg 64%
    11:00 +3°C° 0 mm 3 m/s 742 mmHg 60%
    12:00 +3°C° 0.1 mm 3 m/s 741 mmHg 60%
    13:00 +3°C° 0.1 mm 3 m/s 741 mmHg 59%
    14:00 +4°C° 0.1 mm 3 m/s 740 mmHg 59%
    15:00 +3°C° 0.1 mm 3 m/s 740 mmHg 61%
    16:00 +4°C° 0.1 mm 2 m/s 739 mmHg 63%
    17:00 +4°C° 0.1 mm 1 m/s 739 mmHg 65%
    18:00 +3°C° 0 mm 1 m/s 739 mmHg 69%
    19:00 +1°C° 0 mm 2 m/s 738 mmHg 73%
    20:00 -1°C° 0 mm 2 m/s 738 mmHg 77%
    21:00 -2°C° 0 mm 2 m/s 738 mmHg 79%
    22:00 -2°C° 0 mm 2 m/s 738 mmHg 81%
    23:00 -2°C° 0 mm 2 m/s 737 mmHg 83%

    26 Martie, Marţi

    Timp Temperatura Precipitaţii Vânt Presiune Umiditate
    00:00 -2°C° 0.2 mm 2 m/s 737 mmHg 85%
    01:00 -2°C° 0.2 mm 2 m/s 737 mmHg 87%
    02:00 -1°C° 0.2 mm 2 m/s 737 mmHg 89%
    03:00 -1°C° 0.6 mm 2 m/s 737 mmHg 91%
    04:00 -1°C° 0.6 mm 2 m/s 737 mmHg 92%
    05:00 -1°C° 0.6 mm 3 m/s 737 mmHg 93%
    06:00 -1°C° 0.4 mm 3 m/s 738 mmHg 91%
    07:00 -1°C° 0.4 mm 3 m/s 738 mmHg 89%
    08:00 -2°C° 0.4 mm 4 m/s 738 mmHg 87%
    09:00 -1°C° 0.2 mm 4 m/s 739 mmHg 85%
    10:00 0°C° 0.2 mm 4 m/s 739 mmHg 83%
    11:00 0°C° 0.2 mm 5 m/s 739 mmHg 81%
    12:00 0°C° 0.2 mm 5 m/s 740 mmHg 81%
    13:00 0°C° 0.2 mm 5 m/s 740 mmHg 81%
    14:00 0°C° 0.2 mm 5 m/s 740 mmHg 81%
    15:00 0°C° 0.3 mm 5 m/s 741 mmHg 82%
    16:00 0°C° 0.3 mm 5 m/s 741 mmHg 83%
    17:00 -1°C° 0.3 mm 4 m/s 742 mmHg 85%
    18:00 -1°C° 0.1 mm 4 m/s 742 mmHg 85%
    19:00 -1°C° 0.1 mm 4 m/s 743 mmHg 85%
    20:00 -2°C° 0.1 mm 4 m/s 744 mmHg 86%
    21:00 -2°C° 0 mm 4 m/s 744 mmHg 87%
    22:00 -2°C° 0 mm 4 m/s 745 mmHg 87%
    23:00 -2°C° 0 mm 3 m/s 745 mmHg 88%
    Arată mai mult